Regional Weather Roundup
Issued by NWS Columbia, SC

Home | Current Version | Previous Version | Text Only | Print | Product List | Glossary On
Versions: 1 2 3 4 5 6 7 8 9 10 11 12 13 14 15 16 17 18 19 20 21 22 23 24 25 26 27 28 29 30 31 32 33 34 35 36 37 38 39 40 41 42 43 44 45 46 47 48 49 50
000
ASUS42 KCAE 272210
RWRCAE
REGIONAL WEATHER ROUNDUP
NATIONAL WEATHER SERVICE COLUMBIA SC
600 PM EDT FRI MAR 27 2015

NOTE: "FAIR" INDICATES FEW OR NO CLOUDS BELOW 12,000 FEET WITH NO
SIGNIFICANT WEATHER AND/OR OBSTRUCTIONS TO VISIBILITY.

NOT ALL STATIONS ARE QUALITY CONTROLLED BY THE NATIONAL
WEATHER SERVICE. USE DATA WITH CAUTION...ESPECIALLY
DEWPOINT OBSERVATIONS.

SCZ001>056-GAZ040-063>065-077-272300-
...UPSTATE SOUTH CAROLINA...

CITY           SKY/WX    TMP DP  RH WIND       PRES   REMARKS
ANDERSON       PTSUNNY   50  41  71 NE9G18    29.78R
LIBERTY        CLOUDY    46  44  92 E6        29.77R
SPARTANBURG    LGT RAIN  46  43  87 NE5       29.78F
CLEMSON        CLOUDY    50  42  74 NE6       29.79R
GREENVILLE     LGT RAIN  48  35  60 NE8       29.78S
GREENWOOD      LGT RAIN  51  42  71 N10       29.78R
GREER          CLOUDY    48  42  80 NE7       29.76F
ROCK HILL      CLOUDY    49  39  68 NE3       29.78R
CHESTER        CLOUDY    52  37  58 N9        29.79R
LAURENS        CLOUDY    48  45  87 N10       29.77S


...CENTRAL SOUTH CAROLINA...

CITY           SKY/WX    TMP DP  RH WIND       PRES   REMARKS
COLUMBIA APT   CLOUDY    52  42  69 NE10      29.77R
COLUMBIA OWENS CLOUDY    52  42  69 VRB5      29.79R
DARLINGTON     CLOUDY    48  43  81 N9        29.77R
FLORENCE       CLOUDY    50  45  83 NE9       29.74R
MCENTIRE ANGB  CLOUDY    50  45  81 N9        29.78R
ORANGEBURG     CLOUDY    53  46  77 N12       29.75R
SUMTER SHAW    CLOUDY    49  45  86 N10       29.74R
NEWBERRY       CLOUDY    50  41  71 NE7       29.80R
AIKEN          CLOUDY    52  43  71 N14       29.78S
BARNWELL       CLOUDY    57  48  72 N14G21    29.73R
MANNING        RAIN      50  41  71 N10       29.72S
CAMDEN         CLOUDY    48  43  81 N13G21    29.78R
LANCASTER      CLOUDY    46  45  93 NE8       29.78S
WINNSBORO      CLOUDY    48  41  76 N9        29.78R


...EASTERN AND COASTAL SOUTH CAROLINA...

CITY           SKY/WX    TMP DP  RH WIND       PRES   REMARKS
MYRTLE BEACH   LGT RAIN  54  48  82 N14       29.71R
N MYRTLE BCH   LGT RAIN  51  49  92 N8        29.69R
CONWAY         CLOUDY    48  48 100 N8G17     29.71R
MARION         CLOUDY    50  46  87 N8        29.74R
HARTSVILLE     CLOUDY    45  45 100 N6        29.77R
FLORENCE       CLOUDY    50  45  83 NE9       29.74R
DARLINGTON     CLOUDY    48  43  81 N9        29.77R
CHARLESTON APT CLOUDY    55  53  93 N12       29.69R
MOUNT PLEASANT LGT RAIN  55  54  94 N13G21    29.69R
WALTERBORO     CLOUDY    55  52  88 N14       29.72R
BEAUFORT       CLOUDY    65  53  65 W10       29.67S


...EASTERN GEORGIA...

CITY           SKY/WX    TMP DP  RH WIND       PRES   REMARKS
AUGUSTA BUSH F PTSUNNY   61  46  57 N10       29.72S
AUGUSTA DANIEL PTSUNNY   62  46  55 N8        29.73S
THOMSON        PTSUNNY   64  43  46 NW8G17    29.77F
WASHINGTON     FAIR      63  36  36 W20G26    29.75R
CLAXTON        FAIR      63  48  59 W13G21    29.73R
SYLVANIA       CLOUDY    64  46  52 NW16G23   29.72R
STATESBORO     CLOUDY    64  44  48 NW16G24   29.72R
SAVANNAH       CLOUDY    65  49  56 W14       29.70R


...SOUTHERN NORTH CAROLINA...

CITY           SKY/WX    TMP DP  RH WIND       PRES   REMARKS
CHARLOTTE      CLOUDY    48  37  65 N5        29.78R
MONROE         CLOUDY    47  38  71 NE7       29.77R
WADESBORO      CLOUDY    46  43  88 N8        29.78R
ROCKINGHAM       N/A     45  43  92 N7        29.77R
RUTHERFORDTON  CLOUDY    49  30  47 N6        29.78S
ASHEVILLE      SUNNY     45  24  43 N20G29    29.76F

$$



USA.gov is the U.S. government's official web portal to all federal, state and local government web resources and services.